Location: Ferchesar
(52.6477°N, 12.4298°E)
Time: 10:23:04
(UTC+01:00)

Vanguard 3 - Pass Details

Date: 04 December 2021
Orbit: 508 x 3260 km, 33.3° (Epoch: 25 January)

Event Time Altitude Azimuth Distance (km) Brightness Sun altitude
Exits shadow 01:13:44 13° 136° (SE) 5,906 11.4 -56.5°
Maximum altitude 01:14:13 13° 134° (SE) 5,904 11.4 -56.5°
Drops below altitude 10° 01:21:26 10° 112° (ESE) 6,093 11.6 -55.9°
Sets 01:29:46 0° 91° (E) 6,779 12.1 -55.1°
